This demonstration page uses our WeatherBlox Daily Observations layout. Learn more.

Left ArrowRight Arrow

31.84235, -102.49876

Hourly Observations for March 1, 2018

Temp ( °F °C ) Dew Point ( °F °C ) Humidity (%) Winds ( mph kmh ) Pressure ( in mb ) Visibility ( mi km ) Precip ( " mm )
12:53 am 00:53 Partly Cloudy 51 10.6 24 -4.4 35 35 W 15 24 29.92 1013 10 16 0.00 0.00
1:53 am 01:53 Clear 49 9.4 21 -6.1 33 33 W 13 20 29.93 1014 10 16 0.00 0.00
2:53 am 02:53 Clear 47 8.3 20 -6.7 34 34 W 12 19 29.93 1014 10 16 0.00 0.00
3:53 am 03:53 Clear 45 7.2 21 -6.1 39 39 W 12 19 29.94 1014 10 16 0.00 0.00
4:53 am 04:53 Clear 42 5.6 22 -5.6 45 45 WNW 12 19 29.98 1015 10 16 0.00 0.00
5:53 am 05:53 Clear 42 5.6 24 -4.4 49 49 NW 14 22 30.02 1017 10 16 0.00 0.00
6:53 am 06:53 Clear 40 4.4 26 -3.3 58 58 N 12 19 30.07 1018 10 16 0.00 0.00
7:53 am 07:53 Sunny 42 5.6 31 -0.6 65 65 NNE 15 24 30.11 1020 10 16 0.00 0.00
8:53 am 08:53 Sunny 46 7.8 28 -2.2 50 50 NNE 15 24 30.14 1021 10 16 0.00 0.00
9:53 am 09:53 Sunny 50 10 28 -2.2 43 43 NE 16 26 30.18 1022 10 16 0.00 0.00
10:53 am 10:53 Sunny 51 10.6 26 -3.3 38 38 NNE 14 22 30.21 1023 10 16 0.00 0.00
11:53 am 11:53 Sunny 55 12.8 27 -2.8 34 34 NNE 14 22 30.21 1023 10 16 0.00 0.00
12:53 pm 12:53 Sunny 58 14.4 27 -2.8 31 31 NNE 13 20 30.18 1022 10 16 0.00 0.00
1:53 pm 13:53 Sunny 61 16.1 25 -3.9 25 25 NE 12 19 30.16 1022 10 16 0.00 0.00
2:53 pm 14:53 Sunny 62 16.7 23 -5 22 22 ENE 3 6 30.15 1021 10 16 0.00 0.00
3:53 pm 15:53 Sunny 64 17.8 22 -5.6 20 20 ENE 8 13 30.14 1021 10 16 0.00 0.00
4:53 pm 16:53 Sunny 64 17.8 21 -6.1 19 19 NE 6 9 30.14 1021 10 16 0.00 0.00
5:53 pm 17:53 Sunny 63 17.2 22 -5.6 21 21 E 9 15 30.15 1021 10 16 0.00 0.00
6:53 pm 18:53 Clear 57 13.9 21 -6.1 25 25 ESE 6 9 30.18 1022 10 16 0.00 0.00
7:53 pm 19:53 Clear 55 12.8 25 -3.9 31 31 ESE 8 13 30.19 1022 10 16 0.00 0.00
8:53 pm 20:53 Clear 50 10 27 -2.8 41 41 E 9 15 30.21 1023 10 16 0.00 0.00
9:53 pm 21:53 Clear 51 10.6 30 -1.1 44 44 ESE 10 17 30.21 1023 10 16 0.00 0.00
10:53 pm 22:53 Clear 44 6.7 29 -1.7 55 55 E 9 15 30.23 1024 10 16 0.00 0.00
11:53 pm 23:53 Clear 47 8.3 32 0 56 56 SE 9 15 30.21 1023 10 16 0.00 0.00

Powered by AerisWeather